[[{"header":{"parameterUnit":"m.s-1","parameterCategory":2,"la1":30.2991,"la2":30.254,"lo1":-89.0895,"lo2":-89.0444,"dy":0.0017,"dx":0.0017,"nx":28,"ny":28,"refTime":"2025-12-02T03:00:00:Z","depth":"0","parameterNumber":2,"parameterNumberName":"U-component_of_CURRENTS"},"data":[0,0,0,0,0,0,0,0,0,0,0,0,0,0,0,0,0,0,0,0,0,0,0,0,0,0,0,0,0,0,0,0,0,0,0,0,0,0,0,0,0,0,0,0,0,0,0,0,0,0,0,0,0,0,0,0,0,0,0.2887,0.2887,0,0.2893,0.2893,0.2892,0.2872,0.2871,0.2871,0.287,0.2845,0.2844,0.2844,0,0,0,0,0,0,0,0,0,0,0,0,0,0.2871,0.2871,0.2887,0.2887,0.2888,0.2893,0.2893,0.2892,0.2872,0.2871,0.2871,0.287,0.2845,0.2844,0.2844,0,0,0,0,0,0,0,0,0,0,0,0,0,0.2875,0.2871,0.2887,0.288,0.2879,0.2893,0.2893,0.2892,0.2872,0.2871,0.2871,0.287,0.2845,0.2844,0.2844,0.2853,0,0,0.2843,0.2842,0,0,0,0,0,0,0,0,0.2875,0.2876,0.2881,0.288,0.288,0.2883,0.2878,0.2879,0.2872,0.2872,0.287,0.287,0.2857,0.2855,0.2855,0.2852,0.2851,0.2843,0.2842,0.2842,0.2842,0,0,0,0,0,0,0,0.2875,0.2875,0.2887,0.2881,0.2881,0.2881,0.288,0.2878,0.2865,0.2872,0.2871,0.2876,0.2856,0.2855,0.2854,0.2851,0.2843,0.2842,0.2842,0.2842,0.2885,0.2887,0,0,0,0,0,0,0.2879,0.2875,0.2887,0.2887,0.2879,0.2881,0.2881,0.2881,0.2866,0.2864,0.2876,0.2875,0.2856,0.2854,0.2853,0.2885,0.2842,0.2842,0.2841,0.2884,0.2886,0.2887,0,0,0,0,0,0,0.2878,0.288,0.2887,0.2883,0.2885,0.2883,0.2882,0.2881,0.2885,0.287,0.2867,0.2882,0.2856,0.2853,0.2862,0.2883,0.2841,0.2841,0.2882,0.2885,0.2886,0.2935,0,0,0,0,0,0,0.2878,0.2879,0.2882,0.2884,0.2885,0.2902,0.2883,0.2882,0.2889,0.2887,0.2874,0.287,0.2855,0.2863,0.2862,0.2882,0.2841,0.288,0.2883,0.2886,0.2932,0.2939,0.2945,0,0,0,0,0,0.2877,0.2884,0.2882,0.2884,0.2888,0.2903,0.2904,0.2898,0.289,0.2898,0.2891,0.2871,0.2879,0.2864,0.2862,0.2882,0.2879,0.2882,0.2886,0.2929,0.2938,0.2945,0,0,0,0,0,0,0.2876,0.2883,0.2881,0.2888,0.2899,0.29,0.2908,0.2905,0.2907,0.2905,0.2886,0.2883,0.2902,0.2888,0.2872,0.2905,0.2878,0.2881,0.2911,0.2919,0.2926,0.2941,0.284,0,0,0,0,0,0.2879,0.2886,0.2894,0.2901,0.2908,0.291,0.2915,0.2915,0.2917,0.2916,0.2908,0.2905,0.2914,0.2913,0.2916,0.2929,0.2938,0.2943,0.295,0.2955,0.2968,0.3003,0.3013,0.2898,0.2898,0.2898,0,0,0.2879,0.2886,0.2888,0.2902,0.2907,0.2924,0.2911,0.2926,0.2941,0.2914,0.2929,0.2928,0.2925,0.2944,0.2951,0.2933,0.2995,0.2959,0.2964,0.2974,0.3007,0.3018,0.3028,0.29,0.29,0.2899,0,0,0.2886,0.2892,0.29,0.2914,0.2932,0.2939,0.2947,0.2956,0.2961,0.2978,0.297,0.2986,0.2984,0.2994,0.2997,0.3043,0.3032,0.304,0.3079,0.3112,0.3122,0.313,0.3164,0.3175,0.3038,0.3038,0.3039,0,0.2887,0.2898,0.2906,0.2923,0.2938,0.2949,0.2967,0.2981,0.2991,0.3004,0.2989,0.3022,0.3013,0.3053,0.3067,0.3058,0.3074,0.3046,0.3121,0.3129,0.3137,0.3169,0.3181,0.3041,0.3041,0.3041,0.304,0,0.2899,0.2914,0.2924,0.2949,0.2968,0.2988,0.3012,0.3031,0.3039,0.3052,0.3091,0.3092,0.3109,0.3113,0.3101,0.3158,0.315,0.3128,0.3099,0.3152,0.3182,0.3194,0.3045,0.3044,0.3043,0.3043,0,0,0.2883,0.2924,0.2927,0.2941,0.2984,0.2997,0.304,0.3077,0.3114,0.3125,0.3171,0.3188,0.3192,0.3198,0.3193,0.3221,0.3288,0.3199,0.32,0.323,0.3368,0.3361,0.3373,0.3276,0.3278,0.328,0.3369,0,0.2889,0.2918,0.2944,0.2978,0.2996,0.3031,0.3073,0.3111,0.3151,0.32,0.3218,0.3261,0.3224,0.3245,0.3266,0.3291,0.332,0.3267,0.3315,0.3317,0.3302,0.3386,0.3346,0.3422,0.338,0.3382,0.3383,0,0.2888,0.291,0.294,0.2993,0.3006,0.3033,0.3106,0.3148,0.3229,0.3265,0.3312,0.3331,0.3384,0.3344,0.3407,0.3374,0.3377,0.3388,0.3391,0.3377,0.3331,0.3362,0.3444,0.3421,0.34,0.3399,0.3398,0,0.2856,0.2906,0.2927,0.2944,0.3008,0.3033,0.3076,0.3161,0.3214,0.3317,0.3366,0.3424,0.3463,0.3483,0.3493,0.3459,0.3565,0.3516,0.3514,0.3513,0.3486,0.3479,0.355,0.3564,0.3564,0.3564,0.3564,0,0.2846,0.2862,0.2912,0.292,0.2963,0.3016,0.3082,0.3148,0.3255,0.3322,0.339,0.3459,0.35,0.3552,0.3544,0.3578,0.3602,0.3552,0.3548,0.3502,0.3496,0.3478,0.3458,0.3567,0.3566,0.3566,0.3565,0,0.2804,0.2836,0.2862,0.2923,0.2945,0.2974,0.3075,0.3127,0.3241,0.3337,0.3373,0.3505,0.3588,0.3622,0.3683,0.3649,0.3611,0.3676,0.3624,0.3613,0.3573,0.3557,0.3441,0.3326,0.3701,0.3701,0.3702,0,0.2782,0.279,0.2847,0.2859,0.2885,0.294,0.298,0.3105,0.317,0.3353,0.3392,0.3531,0.3617,0.3729,0.3733,0.376,0.3635,0.3707,0.3632,0.3599,0.3579,0.3388,0.3284,0.3618,0.3618,0.3618,0.3618,0,0.2741,0.2761,0.2778,0.281,0.2841,0.2882,0.2953,0.3004,0.3149,0.3252,0.3396,0.3499,0.3651,0.3702,0.3758,0.3752,0.3585,0.3702,0.3687,0.3551,0.3331,0.3209,0.353,0.3616,0.3616,0.3616,0.3616,0.3616,0.2702,0.2704,0.2726,0.2749,0.2777,0.28,0.2809,0.2904,0.3003,0.3136,0.3305,0.3441,0.3642,0.3745,0.3704,0.3685,0.3569,0.362,0.3615,0.3431,0.3282,0.3604,0.3666,0.3667,0.3667,0.3668,0.3668,0,0.2642,0.2648,0.2664,0.2674,0.2662,0.2713,0.2764,0.2765,0.2832,0.3035,0.3165,0.3409,0.3532,0.3641,0.3742,0.3649,0.341,0.3562,0.3314,0.322,0.3562,0.3525,0.3537,0.3537,0.3538,0.3538,0.3538,0.3538,0.2609,0.2588,0.2595,0.255,0.2553,0.2506,0.251,0.2548,0.2665,0.2829,0.2989,0.3162,0.3544,0.3801,0.3793,0.3673,0.339,0.3259,0.3167,0.3496,0.35,0.3504,0.3465,0.3465,0.3465,0.2695,0.269,0.2686]},{"header":{"parameterUnit":"m.s-1","parameterCategory":2,"la1":30.2991,"la2":30.254,"lo1":-89.0895,"lo2":-89.0444,"dy":0.0017,"dx":0.0017,"nx":28,"ny":28,"refTime":"2025-12-02T03:00:00:Z","depth":"0","parameterNumber":3,"parameterNumberName":"V-component_of_CURRENTS"},"data":[0,0,0,0,0,0,0,0,0,0,0,0,0,0,0,0,0,0,0,0,0,0,0,0,0,0,0,0,0,0,0,0,0,0,0,0,0,0,0,0,0,0,0,0,0,0,0,0,0,0,0,0,0,0,0,0,0,0,0.0036,0.0036,0,-0.001,-0.001,-0.0011,-0.0045,-0.0045,-0.0045,-0.0045,-0.0102,-0.0103,-0.0104,0,0,0,0,0,0,0,0,0,0,0,0,0,0.0049,0.0049,0.0036,0.0036,0.0035,-0.0009,-0.001,-0.0011,-0.0045,-0.0045,-0.0045,-0.0046,-0.0101,-0.0103,-0.0104,0,0,0,0,0,0,0,0,0,0,0,0,0,0.0026,0.0049,0.0036,0.0014,0.0011,-0.0009,-0.001,-0.0011,-0.0045,-0.0045,-0.0045,-0.0046,-0.0101,-0.0103,-0.0105,-0.0111,0,0,-0.0111,-0.0111,0,0,0,0,0,0,0,0,0.0028,0.0026,0.0018,0.0015,0.0013,-0.0021,-0.0026,-0.0045,-0.0045,-0.0025,-0.0045,-0.0046,-0.0075,-0.0079,-0.0088,-0.0114,-0.0116,-0.0111,-0.0112,-0.0113,-0.0113,0,0,0,0,0,0,0,0.0029,0.0027,0.0017,0.0017,0.0014,-0.0009,-0.0013,-0.003,-0.0049,-0.0026,-0.0029,-0.0032,-0.0076,-0.0086,-0.009,-0.0117,-0.0111,-0.0112,-0.0114,-0.0114,-0.0151,-0.0151,0,0,0,0,0,0,0.004,0.0029,0.0018,0.0016,0.0021,-0.0009,-0.0013,-0.0011,-0.0048,-0.0054,-0.0032,-0.0033,-0.0083,-0.0087,-0.0092,-0.0088,-0.0113,-0.0115,-0.0116,-0.0151,-0.0151,-0.0151,0,0,0,0,0,0,0.0041,0.004,0.002,0.0022,0.0018,-0.0008,-0.0006,-0.0011,-0.0018,-0.0052,-0.0058,-0.0032,-0.0083,-0.0089,-0.0101,-0.0091,-0.0116,-0.0117,-0.0152,-0.0151,-0.0151,-0.0088,0,0,0,0,0,0,0.0041,0.004,0.0044,0.0023,0.0018,0.0018,-0.0006,-0.0012,-0.0019,-0.0022,-0.0054,-0.006,-0.0084,-0.0098,-0.0103,-0.0094,-0.0119,-0.0152,-0.0151,-0.0151,-0.0091,-0.0086,-0.0082,0,0,0,0,0,0.0042,0.0056,0.0045,0.0043,0.0025,0.0019,0.0015,-0.0006,-0.0019,-0.0015,-0.0039,-0.0059,-0.0099,-0.0099,-0.0105,-0.0096,-0.0152,-0.0152,-0.0151,-0.0093,-0.0087,-0.0082,0,0,0,0,0,0,0.0063,0.0053,0.0041,0.005,0.0038,0.0014,0.0015,-0.0,-0.0017,-0.0021,-0.0054,-0.0061,-0.007,-0.0092,-0.0091,-0.0107,-0.013,-0.0131,-0.0083,-0.0078,-0.0074,-0.0056,-0.0121,0,0,0,0,0,0.007,0.0077,0.006,0.0066,0.0064,0.0039,0.0033,0.002,0.0003,-0.0005,-0.0029,-0.0054,-0.0073,-0.0082,-0.0103,-0.0108,-0.0138,-0.0109,-0.0104,-0.01,-0.009,-0.0128,-0.0125,-0.0149,-0.0149,-0.0149,0,0,0.0078,0.0074,0.0077,0.0071,0.0059,0.0069,0.0035,0.0033,0.004,-0.0008,-0.0008,-0.0039,-0.0072,-0.0079,-0.0085,-0.0095,-0.011,-0.01,-0.0096,-0.0088,-0.0127,-0.0124,-0.0122,-0.0149,-0.0149,-0.0149,0,0,0.0108,0.0097,0.0115,0.0112,0.0102,0.009,0.0094,0.0074,0.0063,0.0057,0.0024,0.0002,-0.0027,-0.0047,-0.0061,-0.0045,-0.0086,-0.0055,-0.0015,-0.0051,-0.005,-0.0048,-0.0084,-0.0087,-0.0052,-0.0051,-0.0051,0,0.0119,0.0141,0.0119,0.0138,0.0144,0.0106,0.0132,0.0116,0.0094,0.0092,0.0066,0.0021,-0.001,-0.0017,-0.0014,-0.0034,-0.0063,-0.003,-0.0045,-0.0044,-0.0044,-0.0081,-0.0085,-0.0048,-0.0049,-0.0049,-0.0049,0,0.0165,0.0181,0.0193,0.0206,0.0208,0.0222,0.0204,0.0199,0.0176,0.0159,0.0141,0.0089,0.0066,0.0046,0.0021,0.0011,-0.0013,-0.0035,-0.0055,-0.0037,-0.0078,-0.0083,-0.0044,-0.0045,-0.0046,-0.0047,0,0,0.0197,0.0222,0.0226,0.025,0.0249,0.026,0.0268,0.0271,0.0287,0.0238,0.0247,0.0194,0.0159,0.014,0.0096,0.006,0.003,0.0019,0.0015,-0.001,-0.0051,-0.0073,-0.008,0.0004,0.0003,0.0003,-0.0081,0,0.0242,0.0298,0.0295,0.0348,0.0378,0.0354,0.037,0.0363,0.0346,0.0341,0.0272,0.0261,0.0197,0.0186,0.0138,0.0062,0.0021,0.0055,-0.007,-0.0073,-0.0089,-0.0085,-0.0068,-0.0141,-0.0086,-0.0087,-0.0087,0,0.0294,0.0326,0.0388,0.0431,0.0441,0.0461,0.0487,0.05,0.0477,0.0462,0.0426,0.0371,0.0314,0.0252,0.0125,0.0149,0.0059,-0.0013,-0.0018,-0.0061,-0.0103,-0.0151,-0.0153,-0.0341,-0.0095,-0.0095,-0.0094,0,0.0341,0.0395,0.0449,0.0464,0.0498,0.0518,0.0536,0.0536,0.057,0.0543,0.0552,0.0463,0.0429,0.0301,0.0149,0.0138,0.0001,-0.0033,-0.0141,-0.0144,-0.0165,-0.0168,-0.0355,-0.0125,-0.0125,-0.0125,-0.0125,0,0.0398,0.0441,0.0476,0.0506,0.0578,0.0577,0.0648,0.0649,0.0668,0.0719,0.0622,0.0633,0.0439,0.0335,0.0182,0.0011,0.0024,-0.0131,-0.0165,-0.0143,-0.0144,-0.0337,-0.0462,-0.0128,-0.0127,-0.0127,-0.0126,0,0.0445,0.0463,0.0535,0.0582,0.0605,0.0658,0.0738,0.0791,0.0789,0.085,0.0846,0.0763,0.0629,0.0424,0.022,0.0069,-0.0222,-0.0169,-0.013,-0.0158,-0.0433,-0.0555,-0.0792,-0.0894,-0.03,-0.0301,-0.0301,0,0.0474,0.0515,0.0598,0.0651,0.0676,0.0756,0.0819,0.0853,0.0924,0.094,0.098,0.0865,0.0821,0.0504,0.0208,-0.0069,-0.0262,-0.0243,-0.0265,-0.0446,-0.0608,-0.0693,-0.0767,-0.0273,-0.0273,-0.0274,-0.0274,0,0.0534,0.056,0.062,0.0733,0.0809,0.0911,0.1004,0.108,0.1124,0.1175,0.1222,0.1185,0.0874,0.0614,0.0215,0.0005,-0.0395,-0.0261,-0.0461,-0.0613,-0.0707,-0.082,-0.0225,-0.0278,-0.0278,-0.0277,-0.0277,-0.0277,0.0579,0.0635,0.0716,0.0826,0.0922,0.1051,0.1155,0.1262,0.1388,0.1492,0.1429,0.1439,0.1017,0.0485,0.015,-0.0425,-0.0449,-0.0577,-0.0712,-0.0782,-0.088,-0.0293,-0.0376,-0.0376,-0.0377,-0.0377,-0.0377,0,0.0638,0.0702,0.0807,0.094,0.106,0.1101,0.1272,0.1393,0.1562,0.1669,0.1724,0.1549,0.1022,0.0464,-0.0313,-0.0757,-0.0937,-0.1017,-0.114,-0.1196,-0.0676,-0.0672,-0.0808,-0.0808,-0.0807,-0.0807,-0.0807,-0.0807,0.0668,0.0774,0.083,0.1031,0.1133,0.1312,0.142,0.1602,0.1738,0.1904,0.1949,0.1934,0.1527,0.007,-0.0909,-0.1171,-0.1526,-0.1616,-0.1789,-0.1437,-0.1405,-0.1376,-0.14,-0.1685,-0.1687,-0.2225,-0.223,-0.2235]}],[{"header":{"parameterUnit":"m.s-1","parameterCategory":2,"la1":30.2991,"la2":30.254,"lo1":-89.0895,"lo2":-89.0444,"dy":0.0017,"dx":0.0017,"nx":28,"ny":28,"refTime":"2025-12-02T03:00:00:Z","depth":"2","parameterNumber":2,"parameterNumberName":"U-component_of_CURRENTS"},"data":[0,0,0,0,0,0,0,0,0,0,0,0,0,0,0,0,0,0,0,0,0,0,0,0,0,0,0,0,0,0,0,0,0,0,0,0,0,0,0,0,0,0,0,0,0,0,0,0,0,0,0,0,0,0,0,0,0,0,0.2783,0.2783,0,0.2791,0.2791,0.279,0.2775,0.2775,0.2774,0.2774,0.2753,0.2753,0.2753,0,0,0,0,0,0,0,0,0,0,0,0,0,0.2764,0.2764,0.2783,0.2783,0.2783,0.2791,0.2791,0.279,0.2775,0.2774,0.2774,0.2774,0.2753,0.2753,0.2753,0,0,0,0,0,0,0,0,0,0,0,0,0,0.277,0.2764,0.2783,0.2778,0.2778,0.2791,0.2791,0.279,0.2775,0.2774,0.2774,0.2774,0.2753,0.2753,0.2753,0.2759,0,0,0.2751,0.2751,0,0,0,0,0,0,0,0,0.277,0.277,0.2779,0.2779,0.2779,0.2783,0.2777,0.2779,0.2775,0.2774,0.2774,0.2773,0.2762,0.2761,0.2761,0.2758,0.2757,0.2751,0.2751,0.2751,0.2751,0,0,0,0,0,0,0,0.2769,0.277,0.2783,0.2779,0.2779,0.2779,0.2779,0.2777,0.2768,0.2774,0.2773,0.2778,0.2762,0.2761,0.276,0.2757,0.2751,0.2751,0.2751,0.275,0.2795,0.2796,0,0,0,0,0,0,0.2773,0.277,0.2783,0.2784,0.2776,0.278,0.278,0.278,0.2769,0.2767,0.2778,0.2777,0.2762,0.2761,0.2759,0.2794,0.2751,0.275,0.275,0.2793,0.2795,0.2796,0,0,0,0,0,0,0.2772,0.2774,0.2783,0.2779,0.2781,0.2781,0.2782,0.2781,0.2787,0.2773,0.2771,0.2786,0.2762,0.276,0.277,0.2792,0.275,0.275,0.2792,0.2794,0.2796,0.2845,0,0,0,0,0,0,0.2772,0.2774,0.2778,0.2779,0.2781,0.2799,0.2782,0.2781,0.2791,0.279,0.2779,0.2776,0.2761,0.2771,0.277,0.2791,0.275,0.279,0.2792,0.2795,0.2842,0.2849,0.2855,0,0,0,0,0,0.2771,0.2778,0.2778,0.278,0.2785,0.28,0.2801,0.2798,0.2792,0.2801,0.2796,0.2777,0.2787,0.2772,0.277,0.2791,0.2788,0.2792,0.2795,0.2839,0.2848,0.2855,0,0,0,0,0,0,0.277,0.2778,0.2777,0.2785,0.2796,0.2798,0.2807,0.2806,0.2809,0.2809,0.2791,0.2789,0.2809,0.2796,0.278,0.2814,0.2786,0.2789,0.2821,0.2829,0.2835,0.285,0.2749,0,0,0,0,0,0.2774,0.2781,0.279,0.2798,0.2805,0.2809,0.2815,0.2816,0.2819,0.282,0.2813,0.2812,0.2821,0.2821,0.2824,0.2838,0.2846,0.2853,0.2859,0.2865,0.2877,0.291,0.2921,0.2807,0.2807,0.2807,0,0,0.2775,0.2782,0.2785,0.2799,0.2806,0.2823,0.2811,0.2827,0.2843,0.2818,0.2835,0.2835,0.2832,0.2852,0.2859,0.2842,0.2904,0.2869,0.2873,0.2883,0.2915,0.2926,0.2936,0.2809,0.2809,0.2808,0,0,0.2782,0.2789,0.2798,0.2813,0.2831,0.2839,0.2848,0.2858,0.2864,0.2883,0.2876,0.2893,0.2893,0.2902,0.2905,0.2951,0.2941,0.295,0.2988,0.302,0.303,0.3039,0.3071,0.3082,0.2948,0.2948,0.2948,0,0.2784,0.2796,0.2805,0.2822,0.2837,0.2849,0.2868,0.2882,0.2894,0.2908,0.2896,0.2929,0.2921,0.296,0.2975,0.2966,0.2982,0.2955,0.3029,0.3037,0.3045,0.3077,0.3088,0.2951,0.2951,0.295,0.295,0,0.2797,0.2813,0.2823,0.2848,0.2867,0.2888,0.2912,0.2932,0.2943,0.2956,0.2997,0.2998,0.3017,0.3021,0.301,0.3066,0.3059,0.3036,0.3007,0.306,0.3089,0.3101,0.2955,0.2954,0.2953,0.2952,0,0,0.2783,0.2823,0.2827,0.2841,0.2884,0.2897,0.294,0.2977,0.3014,0.3028,0.3074,0.3092,0.3098,0.3104,0.31,0.3128,0.3194,0.3107,0.3108,0.3138,0.3273,0.3262,0.3273,0.3183,0.3185,0.3187,0.3273,0,0.279,0.2819,0.2844,0.2878,0.2896,0.2931,0.2972,0.3011,0.3051,0.31,0.3119,0.3163,0.3129,0.3151,0.3172,0.3197,0.3225,0.3174,0.322,0.3221,0.3204,0.3286,0.3002,0.3055,0.3284,0.3286,0.3287,0,0.279,0.2812,0.2842,0.2893,0.2906,0.2934,0.3006,0.3048,0.3128,0.3164,0.3212,0.3233,0.3286,0.3248,0.331,0.3279,0.3282,0.3293,0.3296,0.3277,0.3232,0.3039,0.3067,0.3306,0.3304,0.3303,0.3301,0,0.276,0.2809,0.283,0.2847,0.291,0.2936,0.2978,0.3062,0.3115,0.3217,0.3266,0.3324,0.3364,0.3384,0.3395,0.3363,0.3465,0.3417,0.3412,0.341,0.3175,0.315,0.3464,0.3464,0.3464,0.3464,0.3463,0,0.2751,0.2767,0.2817,0.2826,0.2869,0.2921,0.2988,0.3052,0.3157,0.3224,0.3292,0.3359,0.3401,0.3451,0.3444,0.3476,0.3501,0.3448,0.3443,0.3187,0.3163,0.3376,0.3364,0.3467,0.3466,0.3466,0.3465,0,0.2711,0.2744,0.2769,0.283,0.2852,0.2882,0.2983,0.3033,0.3147,0.3241,0.3278,0.3405,0.3486,0.352,0.3579,0.3544,0.3573,0.3568,0.3274,0.3235,0.3484,0.3474,0.3586,0.3587,0.3587,0.3588,0.3588,0,0.2691,0.27,0.2756,0.277,0.2796,0.2852,0.2892,0.3014,0.3077,0.3256,0.3294,0.3429,0.3506,0.3612,0.3574,0.3588,0.3617,0.3339,0.3231,0.3518,0.3502,0.3491,0.3481,0.2931,0.2926,0.2922,0.2919,0,0.2652,0.2673,0.269,0.2723,0.2755,0.2795,0.2865,0.2914,0.3055,0.3152,0.3288,0.3381,0.349,0.34,0.3437,0.3394,0.3319,0.3261,0.363,0.2964,0.2913,0.2894,0.2902,0.2882,0.2886,0.2888,0.289,0.2892,0.2616,0.2618,0.2641,0.2665,0.2693,0.2714,0.2722,0.2796,0.2885,0.2967,0.3147,0.317,0.322,0.3146,0.3059,0.2974,0.3201,0.3035,0.3041,0.3054,0.2982,0.2937,0.2897,0.29,0.2903,0.2906,0.2909,0,0.255,0.2564,0.2581,0.259,0.2568,0.263,0.2677,0.2634,0.2669,0.2773,0.2854,0.2654,0.2639,0.2669,0.2497,0.253,0.2433,0.2419,0.2249,0.2291,0.2327,0.221,0.1924,0.1921,0.1917,0.1914,0,0,0.2517,0.2492,0.2498,0.2446,0.2458,0.2387,0.2389,0.2347,0.2365,0.2323,0.2312,0.25,0.2618,0.2223,0.2195,0.2028,0.2129,0.1947,0.2747,0.259,0.2621,0.2709,0.2583,0,0,0,0,0]},{"header":{"parameterUnit":"m.s-1","parameterCategory":2,"la1":30.2991,"la2":30.254,"lo1":-89.0895,"lo2":-89.0444,"dy":0.0017,"dx":0.0017,"nx":28,"ny":28,"refTime":"2025-12-02T03:00:00:Z","depth":"2","parameterNumber":3,"parameterNumberName":"V-component_of_CURRENTS"},"data":[0,0,0,0,0,0,0,0,0,0,0,0,0,0,0,0,0,0,0,0,0,0,0,0,0,0,0,0,0,0,0,0,0,0,0,0,0,0,0,0,0,0,0,0,0,0,0,0,0,0,0,0,0,0,0,0,0,0,0.0108,0.0108,0,0.0063,0.0063,0.0062,0.0027,0.0027,0.0026,0.0026,-0.003,-0.0031,-0.0032,0,0,0,0,0,0,0,0,0,0,0,0,0,0.0121,0.0121,0.0108,0.0108,0.0108,0.0063,0.0063,0.0062,0.0027,0.0027,0.0026,0.0026,-0.0029,-0.0031,-0.0032,0,0,0,0,0,0,0,0,0,0,0,0,0,0.0099,0.0121,0.0109,0.0086,0.0083,0.0064,0.0063,0.0062,0.0027,0.0027,0.0026,0.0026,-0.0029,-0.0031,-0.0032,-0.0037,0,0,-0.0038,-0.0039,0,0,0,0,0,0,0,0,0.01,0.0098,0.0089,0.0087,0.0084,0.0051,0.0046,0.0029,0.0027,0.0047,0.0026,0.0026,-0.0003,-0.0007,-0.0016,-0.004,-0.0042,-0.0038,-0.004,-0.004,-0.0041,0,0,0,0,0,0,0,0.0101,0.0099,0.0089,0.0089,0.0086,0.0062,0.0059,0.0043,0.0024,0.0045,0.0043,0.004,-0.0004,-0.0014,-0.0017,-0.0043,-0.0038,-0.004,-0.0041,-0.0042,-0.0077,-0.0076,0,0,0,0,0,0,0.0112,0.0101,0.0091,0.0088,0.0093,0.0063,0.0059,0.0061,0.0024,0.0019,0.004,0.0038,-0.001,-0.0015,-0.0019,-0.0016,-0.004,-0.0042,-0.0043,-0.0077,-0.0076,-0.0076,0,0,0,0,0,0,0.0113,0.0112,0.0093,0.0094,0.009,0.0064,0.0066,0.0061,0.0053,0.0021,0.0014,0.0038,-0.0011,-0.0017,-0.0029,-0.0018,-0.0043,-0.0045,-0.0077,-0.0077,-0.0076,-0.0015,0,0,0,0,0,0,0.0113,0.0112,0.0116,0.0095,0.0091,0.0091,0.0066,0.006,0.0052,0.0049,0.0017,0.0011,-0.0012,-0.0025,-0.003,-0.0022,-0.0046,-0.0077,-0.0077,-0.0076,-0.0017,-0.0013,-0.0009,0,0,0,0,0,0.0114,0.0127,0.0116,0.0115,0.0097,0.0092,0.0087,0.0066,0.0053,0.0056,0.0032,0.0012,-0.0027,-0.0027,-0.0032,-0.0024,-0.0077,-0.0077,-0.0076,-0.0019,-0.0014,-0.0009,0,0,0,0,0,0,0.0134,0.0125,0.0112,0.0121,0.011,0.0086,0.0087,0.0071,0.0054,0.005,0.0018,0.0011,0.0002,-0.002,-0.0019,-0.0034,-0.0056,-0.0057,-0.0011,-0.0006,-0.0002,0.0016,-0.0048,0,0,0,0,0,0.0141,0.0148,0.0132,0.0138,0.0135,0.011,0.0104,0.0091,0.0074,0.0065,0.0043,0.0017,-0.0001,-0.0009,-0.003,-0.0035,-0.0064,-0.0035,-0.0031,-0.0027,-0.0017,-0.0054,-0.0052,-0.0075,-0.0075,-0.0075,0,0,0.0149,0.0145,0.0147,0.0142,0.013,0.014,0.0106,0.0103,0.011,0.0063,0.0063,0.0032,0.0001,-0.0006,-0.0012,-0.0022,-0.0037,-0.0026,-0.0022,-0.0015,-0.0053,-0.0051,-0.0049,-0.0074,-0.0074,-0.0074,0,0,0.0178,0.0167,0.0185,0.0182,0.0172,0.016,0.0163,0.0143,0.0132,0.0126,0.0094,0.0072,0.0044,0.0025,0.0011,0.0027,-0.0014,0.0017,0.0056,0.0021,0.0022,0.0024,-0.0013,-0.0015,0.0021,0.0021,0.0022,0,0.0188,0.021,0.0189,0.0207,0.0213,0.0176,0.02,0.0185,0.0163,0.0161,0.0135,0.0091,0.0061,0.0055,0.0058,0.0039,0.001,0.0042,0.0027,0.0028,0.0028,-0.001,-0.0013,0.0024,0.0024,0.0024,0.0024,0,0.0233,0.0249,0.0261,0.0274,0.0276,0.029,0.0271,0.0266,0.0244,0.0227,0.0208,0.0158,0.0135,0.0116,0.0092,0.0082,0.0058,0.0036,0.0017,0.0034,-0.0007,-0.0012,0.0029,0.0028,0.0027,0.0026,0,0,0.0264,0.029,0.0293,0.0317,0.0315,0.0327,0.0335,0.0338,0.0353,0.0304,0.0313,0.0261,0.0226,0.0208,0.0165,0.0129,0.0099,0.0089,0.0085,0.0059,0.0018,-0.0005,-0.0013,0.0073,0.0073,0.0073,-0.0012,0,0.0308,0.0364,0.0361,0.0413,0.0443,0.0419,0.0435,0.0428,0.0411,0.0406,0.0338,0.0327,0.0264,0.0252,0.0205,0.0131,0.0089,0.0124,-0.0,-0.0004,-0.0021,-0.0018,0.0015,-0.0058,-0.0017,-0.0018,-0.0019,0,0.0359,0.0391,0.0451,0.0494,0.0504,0.0524,0.0549,0.0563,0.054,0.0524,0.0488,0.0434,0.0378,0.0317,0.0191,0.0215,0.0125,0.0055,0.005,0.0006,-0.0035,-0.0069,-0.0069,-0.0027,-0.0027,-0.0026,-0.0026,0,0.0404,0.0458,0.0511,0.0525,0.056,0.0579,0.0598,0.0597,0.063,0.0603,0.0612,0.0524,0.0489,0.0363,0.0212,0.0202,0.0066,0.0033,-0.0075,-0.0078,-0.0085,-0.0087,-0.0058,-0.0058,-0.0058,-0.0058,-0.0058,0,0.0459,0.0502,0.0536,0.0566,0.0637,0.0636,0.0706,0.0707,0.0725,0.0776,0.068,0.0689,0.0498,0.0394,0.0244,0.0073,0.0087,-0.0066,-0.01,-0.0064,-0.0063,-0.0063,-0.0062,-0.0061,-0.006,-0.006,-0.0059,0,0.0504,0.0522,0.0593,0.064,0.0663,0.0715,0.0794,0.0847,0.0843,0.0903,0.0898,0.0815,0.0681,0.048,0.0277,0.0129,-0.004,-0.0106,-0.0052,-0.0078,-0.0171,-0.0166,-0.0235,-0.0236,-0.0238,-0.0239,-0.024,0,0.0533,0.0572,0.0655,0.0706,0.0731,0.081,0.0873,0.0907,0.0976,0.099,0.1029,0.0912,0.0865,0.055,0.0265,-0.0008,-0.0047,-0.0168,-0.0185,-0.0162,-0.0188,-0.0181,-0.0175,-0.0174,-0.0175,-0.0175,-0.0175,0,0.0591,0.0616,0.0675,0.0786,0.0862,0.0963,0.1054,0.1128,0.1172,0.1218,0.1259,0.1219,0.0915,0.065,0.0258,0.0072,-0.0124,-0.0181,-0.017,-0.0131,-0.0111,-0.0134,-0.0129,-0.0177,-0.0177,-0.0177,-0.0176,-0.0176,0.0635,0.0689,0.0769,0.0878,0.0972,0.1099,0.1202,0.13,0.1421,0.1496,0.144,0.1384,0.1058,0.0574,0.0231,-0.0141,-0.0122,-0.0249,-0.0246,-0.0243,-0.0217,-0.02,-0.0278,-0.0279,-0.0279,-0.0279,-0.0279,0,0.0693,0.0755,0.0858,0.0989,0.1108,0.1148,0.1316,0.1423,0.1575,0.1617,0.1648,0.1349,0.1029,0.0642,0.0101,-0.0215,-0.0237,-0.0325,-0.0276,-0.0271,-0.0268,-0.0242,-0.031,-0.0312,-0.0313,-0.0314,0,0,0.0724,0.0828,0.0883,0.1081,0.1179,0.1354,0.1461,0.1608,0.1687,0.1753,0.1711,0.1616,0.1149,0.0754,0.0316,0.0,-0.0063,-0.0065,-0.0003,0.0112,0.0119,-0.0186,-0.0136,0,0,0,0,0]}],[{"header":{"parameterUnit":"m.s-1","parameterCategory":2,"la1":30.2991,"la2":30.254,"lo1":-89.0895,"lo2":-89.0444,"dy":0.0017,"dx":0.0017,"nx":28,"ny":28,"refTime":"2025-12-02T03:00:00:Z","depth":"4","parameterNumber":2,"parameterNumberName":"U-component_of_CURRENTS"},"data":[0,0,0,0,0,0,0,0,0,0,0,0,0,0,0,0,0,0,0,0,0,0,0,0,0,0,0,0,0,0,0,0,0,0,0,0,0,0,0,0,0,0,0,0,0,0,0,0,0,0,0,0,0,0,0,0,0,0,0.1723,0.1724,0,0.1793,0.1793,0.1794,0.185,0.1851,0.1852,0.1853,0.1927,0.1928,0.1929,0,0,0,0,0,0,0,0,0,0,0,0,0,0.1638,0.1639,0.1723,0.1724,0.1725,0.1793,0.1794,0.1794,0.185,0.1851,0.1852,0.1853,0.1926,0.1928,0.1929,0,0,0,0,0,0,0,0,0,0,0,0,0,0.1686,0.1639,0.1723,0.1763,0.1767,0.1793,0.1794,0.1794,0.185,0.1851,0.1852,0.1853,0.1926,0.1928,0.1929,0.1919,0,0,0.1935,0.1936,0,0,0,0,0,0,0,0,0.1683,0.1689,0.1756,0.176,0.1765,0.1816,0.1791,0.1837,0.185,0.1816,0.1853,0.1854,0.189,0.1895,0.1903,0.1922,0.1925,0.1935,0.1937,0.1937,0.1938,0,0,0,0,0,0,0,0.168,0.1686,0.1749,0.1757,0.1762,0.1777,0.1785,0.18,0.1845,0.1819,0.1824,0.1835,0.1893,0.1901,0.1905,0.1926,0.1935,0.1937,0.1938,0.1939,0.206,0.2062,0,0,0,0,0,0,0.1674,0.1683,0.1747,0.1751,0.1728,0.1778,0.1786,0.1797,0.1845,0.1854,0.1834,0.1837,0.1897,0.1903,0.1908,0.2005,0.1937,0.1939,0.194,0.2058,0.206,0.2062,0,0,0,0,0,0,0.1672,0.1679,0.1744,0.172,0.173,0.1778,0.1789,0.1798,0.1846,0.1856,0.1865,0.1878,0.1898,0.1905,0.1961,0.2004,0.194,0.1942,0.2055,0.2059,0.2061,0.2129,0,0,0,0,0,0,0.1669,0.1678,0.1701,0.172,0.1731,0.1784,0.1789,0.1798,0.1849,0.1855,0.1896,0.1902,0.19,0.1959,0.1963,0.2005,0.1943,0.2053,0.2057,0.206,0.2124,0.2134,0.2143,0,0,0,0,0,0.1666,0.1687,0.1702,0.1711,0.1756,0.1786,0.1794,0.1829,0.1851,0.1877,0.1911,0.1903,0.1986,0.1962,0.1967,0.201,0.2051,0.2056,0.206,0.212,0.2132,0.2142,0,0,0,0,0,0,0.1664,0.1695,0.1712,0.1744,0.1776,0.1797,0.1831,0.1852,0.1899,0.1919,0.1926,0.1934,0.2,0.1996,0.1969,0.2058,0.2019,0.2024,0.2063,0.2074,0.2083,0.2087,0.1945,0,0,0,0,0,0.1673,0.1701,0.1728,0.1759,0.1779,0.1813,0.1838,0.1863,0.1897,0.1921,0.195,0.1983,0.2015,0.2039,0.2063,0.2108,0.2109,0.2142,0.2151,0.2158,0.2167,0.2203,0.2216,0.2078,0.2078,0.2078,0,0,0.1682,0.1704,0.1722,0.1763,0.1793,0.1827,0.1832,0.1882,0.1921,0.192,0.1995,0.2019,0.2036,0.2091,0.212,0.2099,0.22,0.2164,0.2171,0.2175,0.2209,0.2223,0.2234,0.2081,0.208,0.208,0,0,0.17,0.1736,0.1762,0.1793,0.1845,0.1865,0.1888,0.1934,0.1972,0.2033,0.2048,0.2101,0.2148,0.217,0.2184,0.2258,0.2249,0.2273,0.2323,0.2358,0.237,0.238,0.2403,0.2414,0.2276,0.2276,0.2276,0,0.1714,0.1747,0.1777,0.181,0.1843,0.1886,0.1924,0.1963,0.2025,0.206,0.2071,0.2168,0.2184,0.2247,0.2278,0.2279,0.2295,0.2277,0.237,0.2379,0.2388,0.2409,0.2421,0.228,0.228,0.2279,0.2279,0,0.1737,0.1782,0.1804,0.1859,0.1898,0.1942,0.1992,0.2048,0.21,0.2134,0.2226,0.2257,0.2312,0.233,0.2329,0.2408,0.2397,0.2376,0.2338,0.2406,0.2424,0.2435,0.2286,0.2284,0.2283,0.2282,0,0,0.172,0.1804,0.1817,0.1853,0.1932,0.196,0.2038,0.2107,0.217,0.2237,0.2314,0.2377,0.2406,0.2425,0.244,0.2476,0.2555,0.2463,0.2463,0.248,0.2637,0.2471,0.2466,0.2555,0.2557,0.2559,0.2625,0,0.1735,0.1797,0.1841,0.1915,0.195,0.202,0.2086,0.2159,0.2233,0.2318,0.237,0.2452,0.2438,0.2488,0.2521,0.2554,0.2587,0.2539,0.2574,0.2575,0.2413,0.2474,0.2566,0.2633,0.2635,0.2637,0.2639,0,0.1737,0.1782,0.1851,0.1945,0.1971,0.2029,0.2146,0.2214,0.2333,0.2395,0.248,0.2526,0.2609,0.2586,0.2665,0.264,0.2649,0.266,0.2662,0.2489,0.2428,0.255,0.2658,0.2656,0.2655,0.2654,0.2653,0,0.1689,0.1786,0.1843,0.1876,0.1988,0.2049,0.2123,0.2244,0.2316,0.2462,0.2528,0.262,0.2687,0.2719,0.2743,0.2723,0.2814,0.2779,0.2635,0.2624,0.2723,0.2711,0.283,0.283,0.283,0.283,0.283,0,0.1665,0.1716,0.1835,0.1865,0.1951,0.2041,0.2152,0.2243,0.2381,0.2458,0.2571,0.2634,0.2728,0.2781,0.2783,0.2738,0.2844,0.2654,0.2632,0.275,0.2741,0.273,0.2718,0.2832,0.2832,0.2831,0.2831,0,0.1599,0.1677,0.1749,0.1881,0.1931,0.1996,0.2159,0.2227,0.2377,0.2484,0.2538,0.2676,0.274,0.2799,0.2863,0.2771,0.2761,0.2717,0.2854,0.2837,0.2538,0.2529,0.2559,0.2554,0.255,0.2546,0.2543,0,0.1565,0.1598,0.1744,0.179,0.186,0.1974,0.2046,0.2212,0.2278,0.2475,0.2502,0.2637,0.27,0.2652,0.2731,0.2726,0.2688,0.2662,0.2583,0.2536,0.2513,0.251,0.2507,0.2536,0.2535,0.2533,0.2532,0,0.1498,0.1569,0.1626,0.1723,0.1808,0.1885,0.2001,0.2036,0.2209,0.2363,0.2407,0.2443,0.2508,0.2542,0.2562,0.255,0.2667,0.2614,0.2623,0.2548,0.2508,0.2488,0.249,0.2517,0.2519,0.252,0.2521,0,0.1454,0.1474,0.156,0.1631,0.1725,0.1759,0.1838,0.1905,0.1991,0.2198,0.2208,0.2344,0.248,0.2452,0.247,0.245,0.2404,0.2307,0.233,0.2349,0.2247,0.2162,0.2053,0,0,0,0,0,0.1395,0.1401,0.1458,0.1516,0.1601,0.1656,0.1784,0.1863,0.2026,0.1998,0.2097,0.2146,0.2179,0.2256,0.2191,0.2378,0.2415,0.2292,0.2317,0.2431,0.2449,0.2347,0,0,0,0,0,0,0.1352,0.1398,0.1413,0.1403,0.1419,0.1493,0.1567,0.1679,0.1673,0.1847,0.1877,0.2009,0.2077,0.2188,0.2147,0.2169,0.2137,0.2385,0.2379,0.2421,0.2437,0.2451,0.2353,0,0,0,0,0]},{"header":{"parameterUnit":"m.s-1","parameterCategory":2,"la1":30.2991,"la2":30.254,"lo1":-89.0895,"lo2":-89.0444,"dy":0.0017,"dx":0.0017,"nx":28,"ny":28,"refTime":"2025-12-02T03:00:00:Z","depth":"4","parameterNumber":3,"parameterNumberName":"V-component_of_CURRENTS"},"data":[0,0,0,0,0,0,0,0,0,0,0,0,0,0,0,0,0,0,0,0,0,0,0,0,0,0,0,0,0,0,0,0,0,0,0,0,0,0,0,0,0,0,0,0,0,0,0,0,0,0,0,0,0,0,0,0,0,0,0.0239,0.0239,0,0.0208,0.0208,0.0207,0.0185,0.0185,0.0185,0.0185,0.0143,0.0142,0.0141,0,0,0,0,0,0,0,0,0,0,0,0,0,0.0245,0.0245,0.0239,0.0239,0.0239,0.0208,0.0208,0.0207,0.0185,0.0185,0.0185,0.0184,0.0144,0.0142,0.0141,0,0,0,0,0,0,0,0,0,0,0,0,0,0.0231,0.0245,0.024,0.0224,0.0223,0.0208,0.0208,0.0207,0.0185,0.0185,0.0185,0.0184,0.0144,0.0143,0.0141,0.0136,0,0,0.0137,0.0136,0,0,0,0,0,0,0,0,0.0231,0.023,0.0227,0.0225,0.0224,0.0201,0.0195,0.0183,0.0185,0.0199,0.0185,0.0184,0.0162,0.0159,0.0153,0.0134,0.0132,0.0137,0.0136,0.0135,0.0135,0,0,0,0,0,0,0,0.0232,0.0231,0.0227,0.0227,0.0225,0.0207,0.0205,0.0192,0.0181,0.0197,0.0196,0.0193,0.0161,0.0155,0.0152,0.0132,0.0137,0.0135,0.0134,0.0134,0.0104,0.0104,0,0,0,0,0,0,0.024,0.0233,0.0228,0.0226,0.0228,0.0208,0.0205,0.0208,0.0182,0.0178,0.0194,0.0193,0.0157,0.0154,0.015,0.0153,0.0135,0.0134,0.0133,0.0104,0.0104,0.0104,0,0,0,0,0,0,0.024,0.024,0.0229,0.0228,0.0226,0.0208,0.0211,0.0207,0.0204,0.0179,0.0175,0.0194,0.0157,0.0152,0.0144,0.0151,0.0133,0.0132,0.0103,0.0104,0.0104,0.0151,0,0,0,0,0,0,0.024,0.024,0.0245,0.0229,0.0226,0.0228,0.0211,0.0207,0.0203,0.0201,0.0178,0.0173,0.0156,0.0146,0.0142,0.0148,0.0131,0.0103,0.0104,0.0104,0.015,0.0153,0.0156,0,0,0,0,0,0.0241,0.0252,0.0245,0.0245,0.0233,0.0228,0.0225,0.0211,0.0203,0.0206,0.0189,0.0174,0.0144,0.0145,0.0141,0.0146,0.0103,0.0103,0.0104,0.0148,0.0152,0.0156,0,0,0,0,0,0,0.0257,0.025,0.0243,0.0251,0.0242,0.0225,0.0226,0.0215,0.0204,0.0202,0.0178,0.0173,0.0166,0.0149,0.0151,0.0137,0.012,0.0119,0.0155,0.0159,0.0162,0.0176,0.0129,0,0,0,0,0,0.0263,0.027,0.0257,0.0264,0.0262,0.0244,0.024,0.0231,0.0218,0.0213,0.0196,0.0177,0.0163,0.0156,0.014,0.0135,0.0109,0.0134,0.0137,0.014,0.0147,0.0112,0.0113,0.0104,0.0104,0.0104,0,0,0.0271,0.0268,0.0271,0.0267,0.0259,0.0266,0.0242,0.024,0.0245,0.021,0.0212,0.0189,0.0164,0.0158,0.0153,0.0145,0.0127,0.014,0.0143,0.0149,0.0112,0.0113,0.0114,0.0104,0.0104,0.0104,0,0,0.0293,0.0288,0.0302,0.0299,0.0291,0.0282,0.0285,0.027,0.0263,0.0259,0.0235,0.0217,0.0197,0.018,0.0169,0.0179,0.0145,0.0172,0.0201,0.0167,0.0167,0.0167,0.0132,0.0128,0.0174,0.0174,0.0174,0,0.0302,0.0319,0.0304,0.0316,0.0322,0.0295,0.0313,0.0302,0.0285,0.0284,0.0266,0.0231,0.0208,0.0201,0.0203,0.0188,0.0161,0.0191,0.0171,0.0171,0.017,0.0134,0.013,0.0176,0.0176,0.0176,0.0176,0,0.0334,0.0348,0.0356,0.0366,0.0369,0.0379,0.0365,0.0362,0.0348,0.0335,0.032,0.028,0.0262,0.0247,0.0229,0.0216,0.0196,0.0179,0.0165,0.0174,0.0135,0.013,0.018,0.0179,0.0178,0.0178,0,0,0.0356,0.0376,0.038,0.0399,0.0398,0.0407,0.0414,0.0416,0.0428,0.0391,0.0397,0.0357,0.033,0.0315,0.0282,0.0249,0.0217,0.0217,0.0214,0.0188,0.0138,0.0125,0.0117,0.0196,0.0196,0.0195,0.0111,0,0.0387,0.0427,0.0427,0.0468,0.049,0.0476,0.0489,0.0484,0.0472,0.0467,0.0414,0.0406,0.0358,0.035,0.0308,0.0244,0.0206,0.0241,0.0128,0.0125,0.0117,0.0112,0.0193,0.0107,0.0106,0.0105,0.0104,0,0.042,0.0445,0.0492,0.0529,0.0537,0.0556,0.0578,0.0589,0.057,0.0559,0.0529,0.0486,0.0438,0.0393,0.0281,0.0305,0.0229,0.0169,0.0164,0.0134,0.0102,0.0095,0.0094,0.0095,0.0096,0.0097,0.0097,0,0.0449,0.0493,0.0536,0.0548,0.0579,0.0599,0.0617,0.0618,0.0643,0.0621,0.0627,0.0552,0.0523,0.0416,0.029,0.0286,0.0158,0.0136,0.0048,0.0046,0.0063,0.0063,0.0054,0.0054,0.0054,0.0054,0.0054,0,0.0483,0.0519,0.0556,0.058,0.064,0.0644,0.0704,0.0705,0.072,0.0754,0.0681,0.0676,0.0527,0.0434,0.031,0.0165,0.017,0.0054,0.0025,0.0084,0.0088,0.0058,0.006,0.0051,0.0052,0.0052,0.0053,0,0.0507,0.0528,0.0587,0.0633,0.0658,0.0702,0.0776,0.0816,0.0817,0.0855,0.0852,0.0773,0.0647,0.0487,0.0311,0.0203,0.0059,0.0004,0.0081,0.0058,-0.0038,-0.0033,-0.0101,-0.0102,-0.0103,-0.0104,-0.0105,0,0.0522,0.0554,0.0633,0.0678,0.0705,0.0777,0.0831,0.0865,0.091,0.0913,0.0929,0.0826,0.0748,0.0495,0.0318,0.0072,0.0034,-0.0044,-0.0047,-0.0032,-0.0053,-0.0046,-0.004,-0.0106,-0.0106,-0.0107,-0.0107,0,0.0554,0.0583,0.0632,0.0728,0.0797,0.0882,0.0956,0.0995,0.1028,0.103,0.0994,0.0858,0.0713,0.0503,0.031,0.0134,0.0005,-0.0055,-0.0054,-0.0058,-0.0039,-0.0058,-0.005,-0.011,-0.011,-0.011,-0.0109,0,0.058,0.062,0.069,0.0774,0.0866,0.0952,0.0993,0.1039,0.108,0.1069,0.1056,0.0893,0.08,0.0535,0.0361,0.0181,0.013,0.0068,0.0061,0.0063,0.0129,0.0178,0.0151,0,0,0,0,0,0.0602,0.065,0.0732,0.0825,0.0918,0.0978,0.1062,0.1092,0.1119,0.1102,0.1081,0.0943,0.0679,0.057,0.0389,0.0328,0.0092,0.0107,0.0016,-0.0129,-0.0125,-0.0077,0,0,0,0,0,0,0.0616,0.0692,0.0732,0.0852,0.0926,0.1037,0.1094,0.1116,0.1105,0.1096,0.0963,0.0893,0.0641,0.0785,0.0386,0.0331,0.0246,-0.0014,-0.0018,-0.0131,-0.0128,-0.0124,-0.0074,0,0,0,0,0]}]]